Regional Weather Roundup
Issued by NWS Goodland, KS

Home | Current Version | Previous Version | Graphics & Text | Print | Product List | Glossary On
Versions: 1 2 3 4 5 6 7 8 9 10 11 12 13 14 15 16 17 18 19 20 21 22 23 24 25 26 27 28 29 30 31 32 33 34 35 36 37 38 39 40 41 42 43 44 45 46 47 48 49 50
000
ASUS43 KGLD 181908
RWRGLD

GOODLAND FORECAST AREA HOURLY WEATHER ROUNDUP
NATIONAL WEATHER SERVICE GOODLAND KS
100 PM MDT WED OCT 18 2017

...OFFICIAL OBSERVATIONS...

CITY           SKY/WX    TMP DP  RH WIND       PRES   REMARKS
GOODLAND KS      N/A     79  19  10 N10G20    30.05F
HILL CITY KS   MOSUNNY   82  33  17 NW7       29.98F
IMPERIAL NEB   SUNNY     78  19  11 N15       30.06S
MCCOOK NEB     SUNNY     79  30  16 NE21G26   30.01R
AKRON CO       SUNNY     76  13   9 NW14G24   30.13F
BURLINGTON CO  LGT RAIN  81  17   9 N16G25    30.10F
LIMON CO       SUNNY     75  14  10 N10       30.17F
$$

...UNOFFICIAL OBSERVATIONS...

CITY           SKY/WX    TMP DP  RH WIND       PRES   REMARKS
LENORA KS        N/A     79  32  18 MISG        N/A
NORTON KS      SUNNY     75  25  15 NW9       29.97
SHARON SPRINGS   N/A     82  22  11 N13G21      N/A
TRENTON NEB      N/A     79  32  18 N12         N/A
KIT CARSON CO    N/A     79  24  13 MISG        N/A
YUMA CO        FAIR      73  19  13 N14       30.10F
$$



USA.gov is the U.S. government's official web portal to all federal, state and local government web resources and services.